Regional Weather Roundup
Issued by NWS

Home | Current Version | Previous Version | Graphics & Text | Print | Product List | Glossary On
Versions: 1 2 3 4 5 6 7 8 9 10 11 12 13 14 15 16 17 18 19 20 21 22 23 24 25 26 27 28 29 30 31 32 33 34 35 36 37 38 39 40 41 42 43 44 45 46 47 48 49 50
358
ASUS43 KMKX 190620
RWRWI

WISCONSIN REGIONAL WEATHER ROUNDUP
NATIONAL WEATHER SERVICE MILWAUKEE/SULLIVAN WI
1200 AM CST THU JAN 19 2017

NOTE: "FAIR" INDICATES FEW OR NO CLOUDS BELOW 12,000 FEET WITH NO
SIGNIFICANT WEATHER AND/OR OBSTRUCTIONS TO VISIBILITY.

WIZ001-002-006>008-014>016-023>028-190700-
NORTHWEST WISCONSIN

CITY           SKY/WX    TMP DP  RH WIND       PRES   REMARKS
SUPERIOR ARPT  CLOUDY    29  28  94 SW5       29.80F FOG     WCI  24
6HR MIN TEMP:  28; 6HR MAX TEMP:  36;

ASHLAND        CLOUDY    32  28  85 S6        29.82F WCI  26
6HR MIN TEMP:  31; 6HR MAX TEMP:  38;

HAYWARD        CLOUDY    28  26  92 S6        29.83S FOG     WCI  22
6HR MIN TEMP:  27; 6HR MAX TEMP:  34;

SIREN          CLOUDY    29  28  99 S6        29.82F FOG     WCI  22
6HR MIN TEMP:  24; 6HR MAX TEMP:  35;

CUMBERLAND     FOG       27  25  93 S7        29.84S VSB<1/4 WCI  19
RICE LAKE      FOG       28  28  99 SE3       29.87S VSB 1
6HR MIN TEMP:  26; 6HR MAX TEMP:  33;

CHETEK           N/A     27  27  99 E8        29.87R FOG     WCI  19
LADYSMITH      CLOUDY    29  29  98 SE5       29.88S FOG     WCI  24
6HR MIN TEMP:  27; 6HR MAX TEMP:  34;

EAU CLAIRE     FOG       25  24  96 S3        29.87F VSB 1/4
6HR MIN TEMP:  23; 6HR MAX TEMP:  34;

MENOMONIE      FOG       26  26  99 MISG      29.87F VSB 1/4
6HR MIN TEMP:  26; 6HR MAX TEMP:  35;

NEW RICHMOND   CLOUDY    30  30 100 S5        29.84F FOG     WCI  25
6HR MIN TEMP:  28; 6HR MAX TEMP:  33;

OSCEOLA        CLOUDY    31  31 100 SE6       29.86F WCI  25
6HR MIN TEMP:  27; 6HR MAX TEMP:  35;

$$

WIZ003>005-009-010-017-018-190700-
NORTH CENTRAL WISCONSIN

CITY           SKY/WX    TMP DP  RH WIND       PRES   REMARKS
MANITOWISH WTR CLOUDY    29  29 100 SW5       29.83F FOG     WCI  24
ARBOR VITAE    CLOUDY    30  28  94 CALM      29.83F FOG
6HR MIN TEMP:  29; 6HR MAX TEMP:  37;

WOODRUFF       CLOUDY    30  28  94 CALM      29.83F FOG
6HR MIN TEMP:  29; 6HR MAX TEMP:  37;

RHINELANDER    CLOUDY    30  29  96 SW6       29.86S FOG     WCI  24
6HR MIN TEMP:  29; 6HR MAX TEMP:  36;

EAGLE RIVER    CLOUDY    29  29 100 CALM      29.83F FOG
6HR MIN TEMP:  28; 6HR MAX TEMP:  35;

LAND O LAKES   CLOUDY    26  25  97 CALM      29.85F FOG
6HR MIN TEMP:  26; 6HR MAX TEMP:  38;

PHILLIPS       CLOUDY    28  28 100 S5        29.84S FOG     WCI  22
6HR MIN TEMP:  25; 6HR MAX TEMP:  31;

TOMAHAWK       CLOUDY    25  24  96 CALM      29.86S FOG
6HR MIN TEMP:  25; 6HR MAX TEMP:  31;

MEDFORD        CLOUDY    28  27  99 S7        29.87S FOG     WCI  20
6HR MIN TEMP:  26; 6HR MAX TEMP:  33;

MERRILL        CLOUDY    28  28 100 SW3         N/A  FOG
6HR MIN TEMP:  27; 6HR MAX TEMP:  33;

$$

WIZ029-030-035-036-043>047-190700-
CENTRAL WISCONSIN

CITY           SKY/WX    TMP DP  RH WIND       PRES   REMARKS
WAUSAU         CLOUDY    28  27  96 SW3       29.89S FOG
6HR MIN TEMP:  28; 6HR MAX TEMP:  35;

MOSINEE        CLOUDY    28  28 100 S5        29.90F FOG     WCI  23
MARSHFIELD     CLOUDY    28  26  92 SW5       29.89F FOG     WCI  23
6HR MIN TEMP:  26; 6HR MAX TEMP:  35;

STEVENS POINT  CLEAR     25  25 100 S5        29.92F FOG     WCI  19
6HR MIN TEMP:  24; 6HR MAX TEMP:  34;

WAUPACA        CLOUDY    31  28  91 CALM      29.94S FOG
6HR MIN TEMP:  30; 6HR MAX TEMP:  37;

WAUTOMA        CLOUDY    31  30  96 SW6       29.95S FOG     WCI  25
6HR MIN TEMP:  28; 6HR MAX TEMP:  35;

WISC RAPIDS    CLOUDY    30  29  96 SW7       29.94S FOG     WCI  23
6HR MIN TEMP:  28; 6HR MAX TEMP:  35;

CAMP DOUGLAS   CLOUDY    34  32  92 SW3       29.93S
6HR MIN TEMP:  31; 6HR MAX TEMP:  35;

$$

WIZ011>013-019>022-031-037>040-048>050-190700-
NORTHEAST WISCONSIN

CITY           SKY/WX    TMP DP  RH WIND       PRES   REMARKS
ANTIGO         CLEAR     27  27  99 W7        29.87S FOG     WCI  20
6HR MIN TEMP:  27; 6HR MAX TEMP:  32;

SHAWANO        CLOUDY    33  30  89 SW3       29.91S
6HR MIN TEMP:  33; 6HR MAX TEMP:  39;

OCONTO         NOT AVBL
STURGEON BAY   CLEAR     32  29  88 SW9       29.93R WCI  24
6HR MIN TEMP:  32; 6HR MAX TEMP:  34;

GREEN BAY      CLOUDY    34  31  88 SW6       29.93S WCI  29
6HR MIN TEMP:  33; 6HR MAX TEMP:  36;

MANITOWOC      CLEAR     33  29  85 CALM      29.95F FOG
6HR MIN TEMP:  33; 6HR MAX TEMP:  36;

APPLETON       CLOUDY    30  30 100 SW13      29.92S FOG     WCI  20
CLINTONVILLE   CLOUDY    32  28  86 SW5       29.91S WCI  27
OSHKOSH        CLOUDY    32  29  88 SW9       29.95S FOG     WCI  24
6HR MIN TEMP:  32; 6HR MAX TEMP:  33;

$$

WIZ032>034-041-042-053>061-190700-
SOUTHWEST WISCONSIN

CITY           SKY/WX    TMP DP  RH WIND       PRES   REMARKS
LA CROSSE      CLOUDY    37  34  89 SE9       29.93F FOG     WCI  30
6HR MIN TEMP:  35; 6HR MAX TEMP:  37;

SPARTA         CLOUDY    33  33  98 SW5       29.94F FOG     WCI  29
6HR MIN TEMP:  31; 6HR MAX TEMP:  33;

VIROQUA        CLOUDY    33  33 100 S6        29.92F VSB 1/2 WCI  28
6HR MIN TEMP:  31; 6HR MAX TEMP:  33;

BOSCOBEL       CLOUDY    37  34  89 S6        29.96F WCI  32
6HR MIN TEMP:  34; 6HR MAX TEMP:  37;

PRAIRIE DU CHI CLEAR     33  32  94 CALM      29.96S FOG
6HR MIN TEMP:  33; 6HR MAX TEMP:  35;

PLATTEVILLE    CLEAR     32  32 100 S9        29.98S WCI  25
6HR MIN TEMP:  32; 6HR MAX TEMP:  33;

$$

WIZ056-057-062-063-064-067-068-190700-
SOUTH CENTRAL WISCONSIN

CITY           SKY/WX    TMP DP  RH WIND       PRES   REMARKS
REEDSBURG      CLOUDY    33  33 100 SW6       29.96S FOG     WCI  27
6HR MIN TEMP:  31; 6HR MAX TEMP:  33;

BARABOO/DELLS  FOG       33  32  96 SW10      29.95F VSB 1   WCI  25
6HR MIN TEMP:  31; 6HR MAX TEMP:  33;

LONE ROCK      CLOUDY    35  33  92 CALM      29.98F FOG
6HR MIN TEMP:  33; 6HR MAX TEMP:  35;

MINERAL POINT  FOG       34  34 100 S6        29.96F VSB 1   WCI  29
MADISON        CLOUDY    33  32  96 SW5       29.99F FOG     WCI  29
6HR MIN TEMP:  32; 6HR MAX TEMP:  34;

MIDDLETON      CLOUDY    35  35 100 SW5       29.99S WCI  31
6HR MIN TEMP:  33; 6HR MAX TEMP:  35;

WATERTOWN      CLOUDY    33  33 100 SW8       29.98F FOG     WCI  26
6HR MIN TEMP:  32; 6HR MAX TEMP:  33;

MONROE         FOG       32  32 100 S12       29.98S VSB 1/4 WCI  23
JANESVILLE     MOCLDY    34  34 100 S5        30.01R FOG     WCI  30
$$

WIZ051-052-058>065-066-070>072-190700-
SOUTHEAST WISCONSIN

CITY           SKY/WX    TMP DP  RH WIND       PRES   REMARKS
MILWAUKEE      CLOUDY    34  30  85 W8        30.00F FOG     WCI  27
6HR MIN TEMP:  34; 6HR MAX TEMP:  35;

WAUKESHA       CLOUDY    32  32 100 SW8       30.00F FOG     WCI  25
MILWAUKEE/TIMM CLOUDY    32  30  93 SW12      30.00F FOG     WCI  23
RACINE         CLOUDY    33  31  92 W7        30.01F FOG     WCI  27
6HR MIN TEMP:  32; 6HR MAX TEMP:  34;

KENOSHA        CLOUDY    33  31  92 SW13      30.02F FOG     WCI  24
6HR MIN TEMP:  32; 6HR MAX TEMP:  34;

FOND DU LAC    CLOUDY    33  29  85 SW14G24   29.96S FOG     WCI  23
6HR MIN TEMP:  33; 6HR MAX TEMP:  33;

SHEBOYGAN      PTCLDY    32  29  88 SW9       29.96S WCI  24
6HR MIN TEMP:  31; 6HR MAX TEMP:  34;

WEST BEND      CLOUDY    32  32 100 SW9       29.98S FOG     WCI  24
JUNEAU         CLOUDY    32  31  98 SW12      29.99S FOG     WCI  23
6HR MIN TEMP:  31; 6HR MAX TEMP:  32;

$$

LSZ147-162-190700-
LAKE SUPERIOR

STATION/POSITION TIME  TEMP    WIND        PRES    WAVE
                       AIR SEA DIR/SP/G            HT/PER
                 (UTC) (F)     (DEG/KT/KT) (MB)    (FT/S)
DEVILS ISLAND    0600   35     180/  6/  6 1010.1F
PORT WING        0540   28      CALM  /  1 1009.8S
SAXON HARBOR     0440   29      CALM  /  2 1010.2S
$$

LMZ867-665-643>646-190700-
LAKE MICHIGAN

STATION/POSITION TIME  TEMP    WIND        PRES    WAVE
                       AIR SEA DIR/SP/G            HT/PER
                 (UTC) (F)     (DEG/KT/KT) (MB)    (FT/S)
NORTHPORT PIER   0540   33     160/  3/  5 1012.9S
SISTER BAY       0520   34     230/  8/ 10   N/A
ALGOMA LAKESHORE 0439          240/  9/ 10   N/A
KEWAUNEE LAKESHO 0554   32     190/  6/  6 1013.7R
SHEBOYGAN LAKESH 0600   33     220/ 12/ 13 1015.1F
POR



USA.gov is the U.S. government's official web portal to all federal, state and local government web resources and services.